ヒル彗星

P/2009 O3 ( Hill )

English version
Home page
Updated on March 27, 2010

---------------------------------------------------------------------

・ プロフィール

発見日 2009年7月29日
発見光度 17.5等
発見者 R. E. Hill (Catalina Sky Survey)

・ 写真集

・ 軌道要素

Epoch 2009 May 9.0 TT = JDT 2454960.5
T 2009 May 18.63175 TT                                  MPC
q   2.4499433            (2000.0)            P               Q
n   0.04496270     Peri.  154.55715     +0.92815599     +0.37173940
a   7.8325125      Node   183.76543     -0.37097351     +0.92001263
e   0.6872085      Incl.   16.21455     -0.03008511     +0.12404267
P  21.92

・ 光度変化

        m1 = 12.0 + 5 logΔ + 10.0 log r

---------------------------------------------------------------------

軌道要素はM.P.E.C. 2009-S145に掲載されたものです。
光度グラフはComet for Windowsで作成したものです。

---------------------------------------------------------------------

Copyright(C) Seiichi Yoshida (comet@aerith.net). All rights reserved.